Location: Sears
(37.7625°N, 100.1060°W)
Time: 12:06:20
(UTC+00:00)

Envisat - Pass Details

Date: 30 July 2021
Orbit: 764 x 766 km, 98.2° (Epoch: 22 September)

Event Time Altitude Azimuth Distance (km) Brightness Sun altitude
Rises 11:00:49 0° 27° (NNE) 3,239 7.3 -8.1°
Reaches altitude 10° 11:03:34 10° 41° (NE) 2,308 6.9 -7.7°
Maximum altitude 11:07:38 24° 95° (E) 1,553 5.4 -7.0°
Drops below altitude 10° 11:11:40 10° 148° (SSE) 2,294 5.5 -6.3°
Sets 11:14:23 0° 162° (SSE) 3,215 6.1 -5.8°
